Location: Dodge City Community College Allied Health Building
(37.7772°N, 100.0364°W)
Time: 13:48:21
(UTC+00:00)

H-2A R/B - Pass Details

Date: 08 December 2021
Orbit: 733 x 836 km, 98.2° (Epoch: 19 January)

Event Time Altitude Azimuth Distance (km) Brightness Sun altitude
Rises 12:56:05 0° 20° (NNE) 3,168 5.2 -9.3°
Reaches altitude 10° 12:58:29 10° 28° (NNE) 2,245 4.5 -8.8°
Maximum altitude 13:03:08 42° 98° (E) 1,059 3.4 -8.0°
Drops below altitude 10° 13:07:49 10° 169° (S) 2,263 4.9 -7.1°
Sets 13:10:14 0° 176° (S) 3,196 5.6 -6.7°
